Tracking 25734 objects as of 28-May-2022
HD Live streaming from Space Station
objects crossing your sky now

NOAA 17 DEB

Track NOAA 17 DEB now!
10-day predictions


NORAD ID: 48167
Int'l Code: 2002-032H
Perigee: 769.1 km
Apogee: 827.9 km
Inclination: 98.7 °
Period: 100.7 minutes
Semi major axis: 7169 km
RCS: Unknown
Launch date: June 24, 2002
Source: United States (US)
Launch site: AIR FORCE WESTERN TEST RANGE (AFWTR)

Note: This is SATELLITE DEBRIS
aabbcc
Your satellite tracking list
Your tracking list is empty




NASA's NSSDC Master Catalog

Two Line Element Set (TLE):
1 48167U 02032H   22148.32738973  .00003413  00000-0  13251-2 0  9997
2 48167  98.6648  97.0001 0040994 227.7854 131.9847 14.30104505 62573
Source of the keplerian elements: AFSPC